Sarasota, FL

11:05 PM EDT on October 23, 2019 (GMT -0400)
Sarasota-bradenton

Weather History for KSRQ - August, 2019

Change the Weather History Date:

Thursday, August 15, 2019

  Actual Average Record
Temperature  
Mean Temperature 82 °F 82 °F  
Max Temperature 87 °F 90 °F 97 °F (1938)
Min Temperature 76 °F 74 °F 64 °F (1972)
Degree Days  
Heating Degree Days 0 0  
Month to date heating degree days 0 0  
Since 1 June heating degree days 0 0  
Since 1 July heating degree days 0 0  
Cooling Degree Days 17 17  
Month to date cooling degree days 281 255  
Year to date cooling degree days 2552 2017  
Since 1 June cooling degree days 1395 1266  
Growing Degree Days 30 (Base 50)    
Moisture  
Dew Point 76 °F    
Average Humidity 91    
Maximum Humidity 100    
Minimum Humidity 77    
Precipitation  
Precipitation 0.96 in 0.33 in 2.05 in (1969)
Month to date precipitation 6.53 4.31  
Year to date precipitation 35.06 33.50  
Sea Level Pressure  
Sea Level Pressure 29.98 in    
Wind  
Wind Speed 7 mph (South)    
Max Wind Speed 31 mph    
Max Gust Speed 36 mph    
Visibility 8 miles    
Events Rain , Thunderstorm    
T = Trace of Precipitation, MM = Missing Value Source: NWS Daily Summary

Daily Weather History Graph

Daily Weather History Graph

Search for Another Location

Airport or City:

Astronomy

Aug. 15, 2019 Rise Set
Actual Time 7:01 AM EDT 8:08 PM EDT
Civil Twilight 6:36 AM EDT 8:32 PM EDT
Nautical Twilight 6:07 AM EDT 9:01 PM EDT
Astronomical Twilight 5:37 AM EDT 9:31 PM EDT
Moon 8:34 PM EDT (8/15) 6:59 AM EDT (8/15)
Length of Visible Light 13h 55m
Length of Day
13h 07m
Full, 100% of the Moon is Illuminated
Aug 15
Full
Aug 23
Last Quarter
Aug 30
New
Sep 5
First Quarter
Sep 14
Full

Hourly Weather History & Observations

Time (EDT) Temp. Heat Index Dew Point Humidity Pressure Visibility Wind Dir Wind Speed Gust Speed Precip Events Conditions
12:00 AM 78.1 °F - 75.9 °F 93% 29.99 in 7.0 mi SE 6.9 mph - 0.01 in Rain , Thunderstorm Light Rain
12:08 AM 77.0 °F - 73.9 °F 90% 29.98 in 8.0 mi SE 8.1 mph - 0.02 in Rain Rain
12:53 AM 75.9 °F - 75.0 °F 97% 29.99 in 10.0 mi SSE 13.8 mph - 0.09 in Rain Light Rain
1:01 AM 75.9 °F - 75.0 °F 97% 29.99 in 10.0 mi SE 13.8 mph - 0.01 in Rain Light Rain
1:11 AM 75.9 °F - 75.0 °F 97% 29.99 in 10.0 mi SE 10.4 mph - 0.01 in Rain Light Rain
1:25 AM 75.9 °F - 73.9 °F 94% 29.98 in 10.0 mi SSE 10.4 mph - 0.02 in Rain , Thunderstorm Light Rain
1:40 AM 75.9 °F - 73.9 °F 94% 29.98 in 10.0 mi South 6.9 mph - 0.02 in Rain Light Rain
1:53 AM 77.0 °F - 73.9 °F 90% 29.98 in 10.0 mi South 5.8 mph - 0.02 in   Partly Cloudy
2:53 AM 77.0 °F - 75.0 °F 94% 29.94 in 10.0 mi SE 5.8 mph - 0.06 in Rain Light Rain
3:53 AM 77.0 °F - 75.0 °F 94% 29.94 in 10.0 mi Calm Calm - 0.02 in Rain Light Rain
4:53 AM 77.0 °F - 75.9 °F 96% 29.95 in 10.0 mi SSE 3.5 mph - 0.00 in Rain Light Rain
5:53 AM 78.1 °F - 77.0 °F 96% 29.96 in 10.0 mi Variable 4.6 mph - 0.01 in Rain Light Rain
6:53 AM 79.0 °F - 77.0 °F 94% 29.94 in 10.0 mi SSE 5.8 mph - 0.00 in   Clear
7:53 AM 79.0 °F - 78.1 °F 97% 29.96 in 10.0 mi SSE 4.6 mph - N/A   Clear
8:53 AM 82.0 °F 91.6 °F 79.0 °F 90% 29.97 in 10.0 mi South 5.8 mph - 0.00 in   Mostly Cloudy
9:45 AM 82.9 °F 92.8 °F 78.1 °F 85% 29.98 in 10.0 mi SSW 5.8 mph - N/A   Mostly Cloudy
9:53 AM 84.0 °F 96.0 °F 79.0 °F 85% 29.99 in 10.0 mi South 6.9 mph - N/A   Scattered Clouds
10:18 AM 84.0 °F 96.0 °F 79.0 °F 85% 29.99 in 10.0 mi South 6.9 mph - 0.00 in Rain Light Rain
10:44 AM 86.0 °F 99.3 °F 79.0 °F 79% 30.00 in 10.0 mi WSW 8.1 mph - 0.00 in Thunderstorm Scattered Clouds
10:53 AM 86.0 °F 99.3 °F 79.0 °F 79% 29.99 in 10.0 mi SW 11.5 mph 18.4 mph 0.00 in Thunderstorm Mostly Cloudy
11:05 AM 84.9 °F 93.3 °F 75.0 °F 72% 30.00 in 10.0 mi WSW 18.4 mph 26.5 mph 0.00 in Rain Light Rain
11:10 AM 82.9 °F 90.8 °F 75.9 °F 79% 30.01 in 10.0 mi West 15.0 mph 26.5 mph 0.00 in Thunderstorm Thunderstorm
11:17 AM 82.0 °F 89.4 °F 75.9 °F 82% 30.00 in 10.0 mi West 15.0 mph - 0.00 in Thunderstorm Thunderstorm
11:27 AM 81.0 °F 87.3 °F 75.9 °F 85% 29.99 in 9.0 mi West 13.8 mph - 0.00 in Rain , Thunderstorm Light Thunderstorms and Rain
11:37 AM 80.1 °F 85.1 °F 75.0 °F 85% 30.01 in 8.0 mi West 9.2 mph - 0.02 in Rain , Thunderstorm Rain
11:53 AM 80.1 °F 84.5 °F 73.9 °F 81% 29.99 in 8.0 mi WSW 8.1 mph - 0.04 in Rain Light Rain
12:53 PM 82.0 °F 90.2 °F 77.0 °F 85% 29.99 in 10.0 mi South 5.8 mph - 0.01 in Rain Light Rain
1:31 PM 79.0 °F - 75.0 °F 88% 30.01 in 0.8 mi West 12.7 mph 26.5 mph 0.22 in Rain Heavy Rain
1:38 PM 75.9 °F - 73.9 °F 94% 30.01 in 0.8 mi Calm Calm - 0.43 in Rain Heavy Rain
1:44 PM 75.9 °F - 75.0 °F 97% 30.01 in 0.8 mi Calm Calm - 0.53 in Rain , Thunderstorm Heavy Thunderstorms and Rain
1:53 PM 77.0 °F - 75.9 °F 96% 30.01 in 0.8 mi Calm Calm - 0.63 in Rain , Thunderstorm Heavy Thunderstorms and Rain
2:00 PM 78.1 °F - 75.9 °F 93% 30.00 in 2.0 mi ENE 3.5 mph - 0.04 in Rain , Thunderstorm Heavy Thunderstorms and Rain
2:06 PM 78.1 °F - 77.0 °F 96% 30.00 in 3.0 mi NE 3.5 mph - 0.05 in Rain Rain
2:53 PM 79.0 °F - 77.0 °F 94% 29.98 in 10.0 mi Calm Calm - 0.07 in Rain Light Rain
3:53 PM 78.1 °F - 75.0 °F 90% 29.98 in 2.0 mi West 25.3 mph 36.8 mph 0.01 in Rain Light Rain
4:18 PM 77.0 °F - 73.9 °F 90% 29.96 in 6.0 mi WNW 12.7 mph 26.5 mph 0.07 in Rain Light Rain
4:53 PM 77.0 °F - 73.9 °F 90% 29.96 in 10.0 mi NNE 3.5 mph - 0.08 in Rain Light Rain
5:53 PM 78.1 °F - 75.0 °F 90% 29.96 in 10.0 mi ESE 5.8 mph - 0.02 in Rain Light Rain
6:53 PM 77.0 °F - 73.9 °F 90% 29.96 in 10.0 mi SE 9.2 mph - 0.00 in Rain Light Rain
7:53 PM 75.9 °F - 73.9 °F 94% 29.98 in 10.0 mi SE 9.2 mph - 0.00 in   Clear
8:53 PM 75.9 °F - 75.0 °F 97% 30.00 in 10.0 mi SSE 10.4 mph - N/A   Partly Cloudy
9:51 PM 75.2 °F - 75.2 °F 100% 29.99 in 10.0 mi SSE 10.4 mph - N/A   Scattered Clouds
9:53 PM 75.9 °F - 75.0 °F 97% 29.99 in 10.0 mi SSE 9.2 mph - N/A   Scattered Clouds
10:53 PM 77.0 °F - 75.0 °F 94% 30.00 in 10.0 mi SSE 4.6 mph - N/A   Clear
11:53 PM 77.0 °F - 75.9 °F 96% 29.99 in 10.0 mi South 5.8 mph - N/A   Clear